Tullahoma, TN

2:58 PM CDT on June 23, 2017 (GMT -0500)
Tullahoma Regional-Northern

Weather History for KTHA - August, 2013

Change the Weather History Date:

Thursday, August 8, 2013

  Actual Average Record
Temperature  
Mean Temperature 76 °F -  
Max Temperature 84 °F 86 °F 89 °F (2016)
Min Temperature 69 °F 66 °F 64 °F (2015)
Cooling Degree Days 12    
Growing Degree Days 26 (Base 50)    
Moisture  
Dew Point 70 °F    
Average Humidity 91    
Maximum Humidity 100    
Minimum Humidity 70    
Precipitation  
Precipitation 0.00 in - - ()
Sea Level Pressure  
Sea Level Pressure 30.02 in    
Wind  
Wind Speed 3 mph (SSE)    
Max Wind Speed 13 mph    
Max Gust Speed -    
Visibility 10 miles    
Events      
Averages and records for this station are not official NWS values.
T = Trace of Precipitation, MM = Missing Value Source: NWS Daily Summary

Daily Weather History Graph

Daily Weather History Graph

Search for Another Location

Airport or City:

Trip Planner

Search our weather history database for the weather conditions in past years. The results will help you decide how hot, cold, wet, or windy it might be!

Date:

Astronomy

Aug. 08, 2013 Rise Set
Actual Time 5:59 AM CDT 7:41 PM CDT
Civil Twilight 5:31 AM CDT 8:08 PM CDT
Nautical Twilight 4:58 AM CDT 8:41 PM CDT
Astronomical Twilight 4:23 AM CDT 9:16 PM CDT
Moon 7:39 AM CDT (8/8) 8:26 PM CDT (8/8)
Length of Visible Light 14h 37m
Length of Day
13h 42m
Waxing Crescent, 3% of the Moon is Illuminated
Aug 8
Waxing Crescent
Aug 14
First Quarter
Aug 20
Full
Aug 28
Last Quarter
Sep 5
New

Hourly Weather History & Observations

Time (CDT) Temp. Heat Index Dew Point Humidity Pressure Visibility Wind Dir Wind Speed Gust Speed Precip Events Conditions
12:15 AM 71.6 °F - 69.8 °F 94% 30.02 in 10.0 mi Calm Calm - N/A   Clear
12:35 AM 71.6 °F - 69.8 °F 94% 30.02 in 10.0 mi Calm Calm - N/A   Clear
12:55 AM 71.6 °F - 69.8 °F 94% 30.02 in 10.0 mi Calm Calm - N/A   Clear
1:15 AM 71.6 °F - 69.8 °F 94% 30.02 in 10.0 mi Calm Calm - N/A   Clear
1:35 AM 71.6 °F - 69.8 °F 94% 30.02 in 10.0 mi Calm Calm - N/A   Clear
1:55 AM 71.6 °F - 69.8 °F 94% 30.01 in 10.0 mi Calm Calm - N/A   Clear
2:15 AM 69.8 °F - 69.8 °F 100% 30.01 in 10.0 mi Calm Calm - N/A   Clear
2:35 AM 69.8 °F - 69.8 °F 100% 30.01 in 10.0 mi Calm Calm - N/A   Clear
2:55 AM 69.8 °F - 69.8 °F 100% 30.00 in 10.0 mi SSE 3.5 mph - N/A   Clear
3:15 AM 69.8 °F - 69.8 °F 100% 29.99 in 10.0 mi South 3.5 mph - N/A   Clear
3:35 AM 69.8 °F - 69.8 °F 100% 29.99 in 10.0 mi SSE 4.6 mph - N/A   Clear
3:55 AM 69.8 °F - 69.8 °F 100% 29.99 in 10.0 mi SSE 4.6 mph - N/A   Clear
4:15 AM 69.8 °F - 68.0 °F 94% 29.98 in 10.0 mi SSE 3.5 mph - N/A   Clear
4:35 AM 69.8 °F - 68.0 °F 94% 29.99 in 10.0 mi SSE 4.6 mph - N/A   Clear
4:55 AM 69.8 °F - 68.0 °F 94% 29.99 in 10.0 mi SSE 4.6 mph - N/A   Scattered Clouds
5:15 AM 69.8 °F - 68.0 °F 94% 29.99 in 10.0 mi SSE 3.5 mph - N/A   Partly Cloudy
5:35 AM 69.8 °F - 68.0 °F 94% 30.01 in 10.0 mi Calm Calm - N/A   Clear
5:55 AM 69.8 °F - 68.0 °F 94% 30.00 in 10.0 mi SSE 4.6 mph - N/A   Clear
6:15 AM 69.8 °F - 68.0 °F 94% 30.01 in 10.0 mi Calm Calm - N/A   Clear
6:35 AM 69.8 °F - 68.0 °F 94% 30.01 in 10.0 mi Calm Calm - N/A   Clear
6:55 AM 69.8 °F - 68.0 °F 94% 30.01 in 10.0 mi Calm Calm - N/A   Clear
7:15 AM 69.8 °F - 68.0 °F 94% 30.02 in 10.0 mi Calm Calm - N/A   Partly Cloudy
7:35 AM 69.8 °F - 68.0 °F 94% 30.02 in 10.0 mi SE 3.5 mph - N/A   Mostly Cloudy
7:55 AM 69.8 °F - 68.0 °F 94% 30.03 in 10.0 mi South 3.5 mph - N/A   Overcast
8:15 AM 71.6 °F - 68.0 °F 88% 30.03 in 10.0 mi SSE 3.5 mph - N/A   Overcast
8:35 AM 71.6 °F - 68.0 °F 88% 30.04 in 10.0 mi SSE 4.6 mph - N/A   Overcast
8:55 AM 71.6 °F - 68.0 °F 88% 30.05 in 10.0 mi SSE 5.8 mph - N/A   Scattered Clouds
9:15 AM 73.4 °F - 69.8 °F 88% 30.05 in 10.0 mi SSE 5.8 mph - N/A   Partly Cloudy
9:35 AM 73.4 °F - 69.8 °F 88% 30.05 in 10.0 mi SSE 3.5 mph - N/A   Partly Cloudy
9:55 AM 75.2 °F - 69.8 °F 83% 30.05 in 10.0 mi South 4.6 mph - N/A   Partly Cloudy
10:15 AM 77.0 °F - 71.6 °F 83% 30.05 in 10.0 mi South 8.1 mph - N/A   Partly Cloudy
10:35 AM 78.8 °F - 71.6 °F 78% 30.05 in 10.0 mi South 5.8 mph - N/A   Clear
10:55 AM 78.8 °F - 71.6 °F 78% 30.05 in 10.0 mi South 5.8 mph - N/A   Clear
11:15 AM 80.6 °F 85.4 °F 73.4 °F 79% 30.05 in 10.0 mi South 6.9 mph - N/A   Clear
11:35 AM 80.6 °F 85.4 °F 73.4 °F 79% 30.05 in 10.0 mi South 6.9 mph - N/A   Clear
11:55 AM 80.6 °F 85.4 °F 73.4 °F 79% 30.05 in 10.0 mi South 6.9 mph - N/A   Partly Cloudy
12:15 PM 82.4 °F 88.2 °F 73.4 °F 74% 30.04 in 10.0 mi South 6.9 mph - N/A   Partly Cloudy
12:35 PM 82.4 °F 89.5 °F 75.2 °F 79% 30.04 in 10.0 mi SSW 6.9 mph - N/A   Partly Cloudy
12:55 PM 82.4 °F 89.5 °F 75.2 °F 79% 30.04 in 10.0 mi SSW 4.6 mph - N/A   Mostly Cloudy
1:15 PM 84.2 °F 92.3 °F 75.2 °F 74% 30.03 in 10.0 mi SSW 4.6 mph - N/A   Overcast
1:35 PM 84.2 °F 90.9 °F 73.4 °F 70% 30.02 in 10.0 mi SW 4.6 mph - N/A   Mostly Cloudy
1:55 PM 84.2 °F 92.3 °F 75.2 °F 74% 30.01 in 10.0 mi Calm Calm - N/A   Scattered Clouds
2:15 PM 84.2 °F 90.9 °F 73.4 °F 70% 30.01 in 10.0 mi Calm Calm - N/A   Partly Cloudy
2:35 PM 82.4 °F 88.2 °F 73.4 °F 74% 30.01 in 10.0 mi North 12.7 mph - N/A   Mostly Cloudy
2:55 PM 78.8 °F - 71.6 °F 78% 30.02 in 10.0 mi North 8.1 mph - N/A   Mostly Cloudy
3:15 PM 75.2 °F - 71.6 °F 89% 30.03 in 1.2 mi NNW 3.5 mph - N/A   Overcast
3:35 PM 75.2 °F - 71.6 °F 89% 30.03 in 10.0 mi North 3.5 mph - N/A   Partly Cloudy
3:55 PM 73.4 °F - 71.6 °F 94% 30.02 in 10.0 mi East 8.1 mph - N/A   Mostly Cloudy
4:15 PM 73.4 °F - 71.6 °F 94% 30.04 in 10.0 mi WSW 3.5 mph - N/A   Mostly Cloudy
4:35 PM 73.4 °F - 71.6 °F 94% 30.05 in 10.0 mi SE 3.5 mph - N/A   Mostly Cloudy
4:55 PM 73.4 °F - 71.6 °F 94% 30.04 in 10.0 mi Calm Calm - N/A   Unknown
5:15 PM 73.4 °F - 71.6 °F 94% 30.03 in 10.0 mi ESE 3.5 mph - N/A   Overcast
5:35 PM 73.4 °F - 71.6 °F 94% 30.02 in 10.0 mi SE 4.6 mph - N/A   Partly Cloudy
5:55 PM 71.6 °F - 71.6 °F 100% 30.01 in 9.0 mi SE 5.8 mph - N/A   Mostly Cloudy
6:15 PM 71.6 °F - 69.8 °F 94% 30.01 in 10.0 mi SSE 3.5 mph - N/A   Scattered Clouds
6:35 PM 71.6 °F - 69.8 °F 94% 30.02 in 10.0 mi SSE 5.8 mph - N/A   Clear
6:55 PM 71.6 °F - 69.8 °F 94% 30.02 in 10.0 mi SSE 3.5 mph - N/A   Clear
7:15 PM 71.6 °F - 69.8 °F 94% 30.02 in 10.0 mi SSE 3.5 mph - N/A   Clear
7:35 PM 71.6 °F - 69.8 °F 94% 30.03 in 10.0 mi SSE 4.6 mph - N/A   Clear
7:55 PM 71.6 °F - 69.8 °F 94% 30.03 in 10.0 mi SE 6.9 mph - N/A   Clear
8:15 PM 71.6 °F - 69.8 °F 94% 30.03 in 10.0 mi SSE 9.2 mph - N/A   Clear
8:35 PM 71.6 °F - 68.0 °F 88% 30.03 in 10.0 mi South 5.8 mph - N/A   Clear
8:55 PM 69.8 °F - 69.8 °F 100% 30.03 in 10.0 mi SSE 4.6 mph - N/A   Clear
9:15 PM 69.8 °F - 69.8 °F 100% 30.03 in 10.0 mi Calm Calm - N/A   Clear
9:35 PM 69.8 °F - 69.8 °F 100% 30.04 in 10.0 mi South 3.5 mph - N/A   Clear
9:55 PM 69.8 °F - 69.8 °F 100% 30.04 in 10.0 mi SSE 4.6 mph - N/A   Clear
10:15 PM 69.8 °F - 69.8 °F 100% 30.03 in 10.0 mi SSE 4.6 mph - N/A   Clear
10:35 PM 69.8 °F - 69.8 °F 100% 30.03 in 10.0 mi SSE 4.6 mph - N/A   Clear
10:55 PM 69.8 °F - 69.8 °F 100% 30.02 in 10.0 mi SE 4.6 mph - N/A   Clear
11:15 PM 69.8 °F - 68.0 °F 94% 30.02 in 10.0 mi SSE 3.5 mph - N/A   Clear
11:35 PM 69.8 °F - 68.0 °F 94% 30.02 in 10.0 mi Calm Calm - N/A   Clear
11:55 PM 69.8 °F - 68.0 °F 94% 30.02 in 10.0 mi Calm Calm - N/A   Clear